Home > Weather > Shanghai > Past weeks

Flag for China Past Weather in Shanghai, Shanghai Municipality, China — Yesterday and Last 2 Weeks

Now
88 °F

Passing clouds.


Feels Like: 98 °F
Forecast: 80 / 91 °F
Wind: 8 mph from East

Location: Shanghai Hongqiao Airport

Current Time: Aug 25, 2016 at 9:30:33 PM

Latest Report: Aug 25, 2016 at 9:00 PM


Visibility: N/A

Pressure: 29.68 "Hg

Humidity: 66%

Dew Point: 75 °F

Location of ShanghaiLocation

Past Weather in Shanghai — Graph

°F

Shanghai Temperature Yesterday

Maximum temperature yesterday: 97 °F (at 2:30 PM)
Minimum temperature yesterday: 79 °F (at 3:30 AM)
Average temperature yesterday: 87 °F

High & Low Weather Summary for the Past Weeks

 TemperatureHumidityPressure
High100 °F (Aug 19, 1:30 PM)94% (Aug 19, 3:00 PM)29.80 "Hg (Aug 19, 3:00 PM)
Low79 °F (Aug 24, 3:30 AM)39% (Aug 24, 2:30 PM)29.53 "Hg (Aug 17, 4:00 PM)
Average89 °F69%29.65 "Hg
* Reported Aug 10 8:00 PM — Aug 25 8:00 PM, Shanghai, Weather by CustomWeather, © 2016

Note: Actual official high and low records may vary slightly from our data, if they occured in-between our weather recording intervals... More about our weather records

Advertising

Shanghai Weather History for the Previous 24 Hours

Scroll right to see more
 ConditionsComfort  
Time TempWeatherWind HumidityBarometerVisibility
8:00 PM
Thu, Aug 25
88 °FPassing clouds.8 mph66%29.65 "HgN/A
7:30 PM88 °FPassing clouds.8 mph66%29.62 "HgN/A
7:00 PM90 °FPassing clouds.8 mph63%29.62 "HgN/A
6:30 PM90 °FPassing clouds.10 mph63%29.62 "HgN/A
6:00 PM90 °FPassing clouds.8 mph63%29.62 "HgN/A
5:30 PM91 °FPassing clouds.10 mph59%29.59 "HgN/A
5:00 PM91 °FSunny.13 mph63%29.59 "Hg10 mi
4:30 PM91 °FPassing clouds.10 mph59%29.59 "HgN/A
4:00 PM93 °FPassing clouds.10 mph56%29.59 "HgN/A
3:30 PM93 °FPassing clouds.10 mph56%29.59 "HgN/A
3:00 PM93 °FSunny.10 mph59%29.59 "Hg10 mi
2:30 PM95 °FSunny.13 mph56%29.59 "Hg10 mi
2:00 PM95 °FPassing clouds.3 mph47%29.59 "HgN/A
1:30 PM95 °FPassing clouds.3 mph47%29.62 "HgN/A
1:00 PM97 °FPassing clouds.3 mph42%29.62 "HgN/A
12:30 PM97 °FPartly sunny.3 mph44%29.62 "HgN/A
12:00 PM95 °FPartly sunny.6 mph47%29.62 "HgN/A
11:30 AM95 °FPartly sunny.6 mph50%29.65 "HgN/A
11:00 AM93 °FPartly sunny.6 mph53%29.65 "HgN/A
10:30 AM93 °FPartly sunny.3 mph56%29.65 "HgN/A
10:00 AM93 °FPartly sunny.8 mph56%29.68 "HgN/A
9:30 AM91 °FPartly sunny.6 mph56%29.68 "HgN/A
9:00 AM90 °FPartly sunny.6 mph63%29.68 "HgN/A
8:30 AM88 °FScattered clouds.3 mph70%29.65 "HgN/A
8:00 AM86 °FScattered clouds.3 mph70%29.68 "HgN/A
7:30 AM86 °FScattered clouds.1 mph75%29.68 "HgN/A
7:00 AM84 °FScattered clouds.1 mph84%29.65 "HgN/A
6:30 AM84 °FPassing clouds.3 mph84%29.65 "HgN/A
6:00 AM82 °FSunny.No wind84%29.65 "Hg10 mi
5:30 AM81 °FSunny.No wind89%29.65 "Hg10 mi
5:00 AM81 °FClear.3 mph89%29.65 "Hg10 mi
4:30 AM81 °FClear.3 mph89%29.65 "Hg10 mi
4:00 AM81 °FClear.6 mph89%29.65 "Hg10 mi
3:30 AM81 °FClear.3 mph89%29.65 "Hg10 mi
3:00 AM84 °FPassing clouds.3 mph74%29.65 "HgN/A
2:30 AM84 °FPassing clouds.3 mph74%29.65 "HgN/A
2:00 AM84 °FPassing clouds.3 mph74%29.65 "HgN/A
1:30 AM84 °FPassing clouds.3 mph74%29.65 "HgN/A
1:00 AM84 °FPassing clouds.6 mph74%29.65 "HgN/A
12:30 AM84 °FPassing clouds.3 mph79%29.65 "HgN/A
12:00 AM84 °FPassing clouds.3 mph74%29.68 "HgN/A
11:30 PM
Wed, Aug 24
84 °FPassing clouds.6 mph74%29.68 "HgN/A
11:00 PM84 °FPassing clouds.8 mph74%29.68 "HgN/A
10:30 PM84 °FPassing clouds.8 mph74%29.68 "HgN/A
10:00 PM84 °FClear.8 mph74%29.68 "Hg10 mi
9:30 PM84 °FPassing clouds.8 mph74%29.68 "HgN/A
9:00 PM84 °FPassing clouds.8 mph74%29.68 "HgN/A
Weather by CustomWeather, © 2016

See weather overviewHow to use our weather pages